Dewpoint
59 57 55 53 53 54 54 55 54 50 44 42 44 45 43 44 45 41 42 48 50 50 52 52 54 54 56 58 60 62 63 64 64 64 65 64 64 64 65 65 65 65 65
57 53 51 48 48 49 51 52 51 47 43 42 43 45 42 41 42 43 38 42 48 52 53 53 55 56 56 57 58 59 60 62 63 63 64 64 64 64 64 64 64 65 65
54 54 49 49 48 50 53 54 53 49 45 41 41 42 42 43 40 41 39 38 43 52 52 52 53 53 52 52 53 54 57 59 60 62 63 64 64 64 63 63 64 64 65
55 54 50 49 50 51 50 50 50 47 45 41 39 39 39 39 40 41 39 38 36 35 48 52 50 50 50 50 50 50 52 54 56 58 62 63 63 64 64 63 63 64 64
52 52 49 49 52 50 49 49 48 48 46 41 38 39 40 39 39 35 37 40 41 38 36 49 50 49 48 46 45 46 50 54 55 56 58 61 62 63 63 64 64 64 63
48 49 48 51 52 50 49 48 50 48 45 44 35 34 38 40 39 38 38 36 36 41 40 41 42 42 47 42 41 41 46 48 50 55 54 58 59 62 63 63 63 64 63
46 47 46 47 49 48 49 51 50 50 48 46 43 40 39 42 43 39 38 36 36 39 41 42 37 35 37 42 38 43 44 47 48 48 52 53 53 56 58 62 62 63 63
42 41 45 45 45 45 47 49 50 48 48 48 44 41 37 36 38 40 39 37 40 37 39 41 37 36 34 32 39 42 43 45 47 50 49 52 48 52 53 56 60 61 62
40 41 43 44 45 44 42 45 46 47 44 46 48 43 39 36 36 36 41 38 40 40 39 37 34 32 33 35 37 42 45 47 47 48 47 51 49 49 50 53 57 59 60
39 39 41 43 44 43 43 42 39 43 44 42 43 43 47 44 39 36 37 40 39 39 41 35 33 34 34 32 36 43 46 47 48 50 46 46 48 49 49 52 54 55 58
38 38 41 43 43 42 43 45 45 45 44 43 42 42 44 43 42 39 36 36 36 36 33 35 36 35 36 34 32 41 45 47 46 48 49 48 49 50 50 50 52 52 54
36 38 39 42 43 42 42 41 43 43 43 43 41 41 39 37 37 36 35 35 36 33 33 35 35 35 36 34 35 40 44 44 43 45 47 48 49 50 49 48 48 51 51
35 38 41 41 39 40 40 41 42 42 40 39 39 39 39 39 38 38 38 36 35 34 34 34 34 34 32 35 33 39 43 39 41 44 45 48 47 49 50 49 49 49 50
38 41 40 39 40 40 40 41 40 38 39 39 39 39 39 39 39 38 37 37 36 38 36 36 34 33 33 32 37 40 33 37 39 44 43 45 45 43 44 44 46 46 44
37 39 40 38 35 36 36 37 37 38 37 37 37 37 37 38 38 37 37 34 34 32 28 30 30 32 31 31 34 32 34 39 39 42 42 43 42 40 39 40 43 45 46
39 37 35 34 34 36 38 38 37 36 36 35 32 31 29 28 30 31 29 29 28 25 22 21 21 24 26 21 30 29 30 38 40 41 41 40 41 40 40 40 41 42 45
35 34 34 34 35 37 38 38 36 34 30 30 29 28 27 27 26 25 25 25 23 23 21 21 20 23 26 27 27 29 29 29 30 39 40 38 38 39 39 39 40 42 43
37 36 37 38 37 37 34 32 31 29 27 25 26 26 25 17 24 24 23 25 24 24 23 23 23 22 25 26 28 29 25 22 26 32 40 39 38 37 37 37 39 41 42
38 39 37 36 36 34 33 29 26 25 26 26 25 24 23 24 24 23 24 23 23 19 22 21 21 22 23 23 24 26 27 28 24 31 37 38 39 39 39 38 39 40 42
33 32 30 30 30 27 25 24 23 24 24 23 24 25 23 23 23 23 21 22 20 20 20 19 18 19 20 22 22 22 23 25 25 21 26 28 32 36 37 38 38 40 41
24 23 23 23 24 22 18 26 22 23 24 24 24 23 24 25 26 26 22 21 21 20 19 19 19 20 20 21 21 22 22 24 25 26 26 27 27 27 28 34 32 38 38
21 22 22 22 23 18 29 28 28 24 23 21 21 21 21 25 24 26 26 25 26 23 22 21 20 21 21 21 22 22 24 23 22 29 27 28 30 28 28 28 31 35 38
23 23 23 23 24 24 25 25 25 22 21 21 21 21 18 15 22 20 24 27 26 26 25 24 23 23 23 24 24 25 25 25 23 24 27 29 31 33 35 28 34 36 37
22 22 23 23 22 19 24 23 23 22 23 23 21 21 19 19 21 23 22 22 22 23 24 24 24 22 23 23 24 24 25 26 28 25 27 28 32 33 34 34 34 35 37
22 22 22 22 21 21 24 22 22 24 23 22 20 20 21 23 24 25 25 27 24 24 25 28 28 27 28 29 28 27 29 27 28 24 25 25 30 31 32 34 37 34 35
21 22 24 24 24 24 23 22 22 23 25 24 24 23 25 24 26 25 28 28 25 22 23 26 26 30 30 27 29 29 28 26 26 25 24 24 23 24 28 35 34 37 38
Lifted_Index
-1 0 1 2 2 2 2 2 3 5 7 8 8 8 8 8 8 8 9 9 9 7 6 5 5 4 3 2 1 0 -1 -1 -2 -2 -2 -2 -2 -3 -2 -2 -2 -2 -2
1 1 2 3 3 3 3 3 3 5 7 8 8 8 8 8 8 9 9 9 9 8 7 6 5 4 4 3 3 2 1 -1 -1 -2 -2 -2 -2 -2 -2 -2 -2 -2 -2
2 2 3 4 4 4 3 3 4 5 6 8 8 8 8 9 9 9 9 10 10 9 8 7 6 6 6 5 5 4 3 1 0 -1 -2 -2 -2 -2 -2 -2 -2 -2 -2
2 3 3 3 4 4 3 3 4 4 6 7 7 8 8 8 9 9 9 10 10 9 9 8 8 8 8 7 7 6 5 4 2 1 -0 -1 -2 -2 -2 -2 -2 -2 -2
3 3 3 3 3 3 3 3 3 4 5 6 7 7 7 8 8 9 9 9 9 9 9 9 8 9 9 9 9 9 7 6 4 3 2 0 -1 -1 -2 -2 -2 -2 -2
5 5 4 4 4 4 3 3 3 3 4 5 6 6 6 7 7 7 8 8 9 9 9 9 9 9 10 10 11 10 9 8 6 5 4 2 1 0 -1 -1 -1 -1 -1
6 6 6 5 5 4 4 3 3 3 3 4 5 5 6 6 6 6 6 7 7 8 8 8 9 10 10 11 11 11 10 9 8 7 6 5 4 3 2 1 0 -0 -1
8 8 7 6 6 5 5 4 3 3 3 3 3 4 4 5 5 5 5 6 6 7 7 8 9 10 10 11 11 11 11 10 9 8 7 7 6 6 4 3 2 1 0
8 8 7 7 6 5 5 4 4 3 3 3 2 3 3 4 4 4 5 5 5 6 6 8 9 10 11 11 11 11 11 11 10 9 8 8 7 7 6 5 3 2 1
8 7 7 6 6 5 5 5 4 4 3 3 3 2 3 3 3 4 4 5 5 6 6 8 9 10 10 11 11 12 12 12 10 9 8 8 8 7 7 6 5 4 4
7 7 7 6 6 6 5 5 5 5 4 4 4 3 3 3 4 4 4 5 5 6 7 8 8 9 9 10 11 12 12 12 11 10 9 8 8 7 7 7 7 6 6
7 7 7 6 6 6 6 6 6 6 6 6 6 6 5 5 5 5 5 5 5 6 7 8 8 8 9 9 10 11 12 12 11 10 10 9 8 7 7 8 7 7 7
7 7 7 6 6 6 6 6 6 7 8 8 8 8 7 7 7 7 7 6 6 6 7 7 8 8 8 9 10 11 12 12 11 11 11 10 9 9 9 9 8 8 8
7 7 7 7 6 6 7 7 7 7 8 9 8 8 7 7 7 8 8 7 7 7 7 7 7 7 8 8 9 10 11 11 11 11 11 11 11 11 11 10 10 10 10
7 7 7 7 7 7 7 7 7 7 7 7 7 6 6 6 7 7 7 7 7 7 7 6 6 7 7 8 8 9 9 10 10 11 12 12 12 12 12 12 12 12 12
6 6 7 7 7 7 6 6 5 5 5 5 5 5 5 5 5 6 6 7 7 7 7 7 7 7 7 7 7 8 8 8 9 10 11 12 12 12 13 13 14 13 13
6 6 6 6 6 6 5 4 4 4 4 4 5 5 5 5 6 6 6 6 7 7 7 7 7 7 7 7 7 7 8 8 8 8 9 10 12 12 13 13 14 14 14
6 6 6 6 5 5 4 4 4 4 4 5 5 5 6 6 6 7 7 7 7 7 7 7 7 7 7 7 7 7 7 8 8 8 8 9 10 11 12 13 13 13 14
6 6 5 5 5 4 4 5 5 5 5 6 6 6 7 7 7 8 8 8 8 8 8 8 8 8 8 8 8 8 8 8 8 8 9 9 9 10 11 11 12 13 13
6 6 6 5 5 6 6 6 6 6 6 7 7 7 8 8 9 9 9 9 9 9 9 9 9 9 9 9 9 9 9 9 9 9 9 9 9 10 10 10 11 12 12
7 7 7 7 7 7 7 8 8 8 8 8 8 8 9 9 10 10 11 11 11 10 10 10 9 9 9 9 9 9 9 10 10 10 10 10 10 10 10 10 10 10 11
7 7 7 7 8 8 8 9 9 9 9 9 9 9 9 10 11 11 12 12 12 12 11 10 10 10 10 10 10 10 10 10 11 10 10 10 10 10 10 10 10 10 10
7 8 8 8 8 8 9 10 10 10 10 10 10 10 10 11 11 12 12 12 13 12 12 12 11 11 11 10 10 10 10 10 10 10 10 10 10 10 10 10 11 11 11
8 8 8 8 8 8 9 9 10 10 10 10 10 10 11 12 12 12 13 13 13 12 12 12 12 12 11 11 10 10 10 10 10 10 9 9 9 10 10 10 11 11 11
8 8 8 8 8 8 8 9 9 9 9 9 9 10 11 12 13 13 13 13 13 12 12 12 12 12 11 11 11 11 10 10 10 10 10 9 9 9 9 10 10 10 11
8 7 7 7 7 8 8 9 9 9 9 9 9 10 11 12 13 13 13 13 13 12 12 12 11 11 11 11 11 11 10 10 10 10 10 10 10 9 9 9 9 10 10